Regional Weather Roundup
Issued by NWS

Home | Current Version | Previous Version | Text Only | Print | Product List | Glossary On
Versions: 1 2 3 4 5 6 7 8 9 10 11 12 13 14 15 16 17 18 19 20 21 22 23 24 25 26 27 28 29 30 31 32 33 34 35 36 37 38 39 40 41 42 43 44 45 46 47 48 49
000
ASUS45 KBOU 230207
RWRCO

WEATHER ROUNDUP FOR COLORADO
NATIONAL WEATHER SERVICE DENVER/BOULDER CO
800 PM MDT MON SEP 22 2014

NOTE: "FAIR" INDICATES FEW OR NO CLOUDS BELOW 12000 FEET WITH NO
SIGNIFICANT WEATHER AND/OR OBSTRUCTIONS TO VISIBILITY.

COZ001>005-013-030-031-230300-
...NORTHWEST COLORADO...

CITY           SKY/WX    TMP DP  RH WIND       PRES   REMARKS
CRAIG          MOCLDY    59  48  67 SW7       30.21R
HAYDEN         MOCLDY    55  45  67 CALM      30.23R
MEEKER         LGT RAIN  59  52  77 S7        30.26R
MOUNT WERNER   NOT AVBL
STEAMBOAT SPGS MOCLDY    54  50  85 E3        30.26R
WALDEN         MOCLDY    50  41  71 NW8       30.32R
$$

COZ006>008-011-230300-
...WEST CENTRAL VALLEYS...

CITY           SKY/WX    TMP DP  RH WIND       PRES   REMARKS
GRAND JUNCTION MOCLDY    66  54  65 NE5       30.13R
MONTROSE       PTCLDY    65  56  72 SW5       30.21R
EAGLE          CLOUDY    61  50  67 S5        30.27R
RIFLE          MOCLDY    65  52  62 S5        30.18R
DELTA          PTCLDY    72  55  55 CALM      30.16R
NUCLA          PTCLDY    68  50  52 S5        30.23S
$$

COZ017>023-064>068-230300-
...SOUTHWEST COLORADO...

CITY           SKY/WX    TMP DP  RH WIND       PRES   REMARKS
DURANGO        CLEAR     64  44  48 NW8       30.26R
CORTEZ         CLEAR     62  50  64 VRB3      30.21R
PAGOSA SPRINGS CLEAR     60  49  67 CALM      30.32S
TELLURIDE      NOT AVBL
WOLF CREEK PAS CLOUDY    43  43 100 SW17G28   30.59R
$$

COZ009-010-012-014-032>034-037-058>063-230300-
...CENTRAL COLORADO...

CITY           SKY/WX    TMP DP  RH WIND       PRES   REMARKS
ASPEN          CLOUDY    56  48  74 CALM      30.33R
BUENA VISTA    MOCLDY    59  42  54 W6        30.31R
COPPER MTN     RAIN      45  36  70 W23G35    30.56R
BERTHOUD PASS  MOCLDY    36  34  93 NW25G36   30.56S
COTTONWOOD PAS MOCLDY    55  37  50 W22G32    30.41S
GUNNISON       MOCLDY    61  45  55 N6        30.34R
KREMMLING      CLOUDY    55  45  67 CALM      30.31R
LEADVILLE      PTCLDY    49  39  68 NW14      30.43R
MONARCH PASS   PTCLDY    43  37  81 W35       30.64F
SALIDA         MOCLDY    62  47  56 W3        30.35R
SUNLIGHT       MOCLDY    45  45 100 CALM      30.50S
WILKERSON PASS NOT AVBL
$$

COZ069>075-230300-
...SAN LUIS VALLEY/SANGRE DE CRISTO MOUNTAINS...

CITY           SKY/WX    TMP DP  RH WIND       PRES   REMARKS
ALAMOSA        PTCLDY    60  48  64 S13       30.27R
LA VETA PASS   CLEAR     46  43  87 SW6       30.44S
SAGUACHE       MOCLDY    57  50  77 CALM      30.31R
$$

COZ035-036-038>040-230300-
...NORTHERN COLORADO FRONT RANGE...

CITY           SKY/WX    TMP DP  RH WIND       PRES   REMARKS
DENVER INTL AP PTCLDY    68  47  46 NW12      30.12R
DMNS CITY PARK   N/A     62  51  69 NE7       30.12S
AURORA         MOCLDY    58  52  81 SE12      30.15R
FRONT RANGE AP NOT AVBL
ERIE MUNI ARPT NOT AVBL
BOULDER MUN AP PTCLDY    68  39  34 N6        30.11S
CENTENNIAL     MOCLDY    64  50  60 SE5       30.15R
BROOMFIELD     MOCLDY    68  46  45 CALM      30.14S
FORT COLLINS   MOCLDY    66  45  45 W6        30.11R
LONGMONT       MOCLDY    69  41  35 NW10      30.12R
$$

COZ041-046-047-076>085-087-088-230300-
...PIKES PEAK/PALMER DIVIDE AND SOUTHERN FOOTHILLS...

CITY           SKY/WX    TMP DP  RH WIND       PRES   REMARKS
COLO. SPRINGS  PTCLDY    66  50  56 S8        30.17R
A. F. ACADEMY  PTCLDY    61  51  68 N7        30.20R
ELLICOTT       NOT AVBL
FALCON         PTCLDY    62  48  59 SW5       30.22R
FORT CARSON    PTCLDY    66  51  58 NE5       30.14R
LIMON          CLEAR     63  52  67 CALM      30.13R
MONUMENT HILL  PTCLDY    57  50  77 NE3       30.23R
TRINIDAD       PTCLDY    66  55  67 SW16G23   30.15R
$$

COZ042>045-048>051-090-091-230300-
...NORTHEAST COLORADO...

CITY           SKY/WX    TMP DP  RH WIND       PRES   REMARKS
GREELEY ARPT   CLOUDY    70  45  40 W7        30.09R
AKRON          MOCLDY    61  58  90 S7        30.07S
BURLINGTON     MOCLDY    70  55  59 S14       30.09R
WRAY           CLOUDY    64  59  84 S13G32    30.05F
STERLING       MOCLDY    66  61  82 S8        30.04R
HOLYOKE        CLOUDY    63  55  77 E8        30.06S
FORT MORGAN    MOCLDY    63  57  81 CALM      30.07R
$$

COZ086-089-092>099-230300-
...SOUTHEAST COLORADO...

CITY           SKY/WX    TMP DP  RH WIND       PRES   REMARKS
PUEBLO         CLEAR     69  55  60 VRB6      30.05S
LA JUNTA       CLEAR     73  58  59 S18G24    30.05S
LAMAR          MOCLDY    74  59  59 S21G29    30.05R
SPRINGFIELD      N/A     66  58  75 S23       30.15R
$$



USA.gov is the U.S. government's official web portal to all federal, state and local government web resources and services.